Regional Weather Roundup
Issued by NWS

Home | Current Version | Previous Version | Graphics & Text | Print | Product List | Glossary On
Versions: 1 2 3 4 5 6 7 8 9 10 11 12 13 14 15 16 17 18 19 20 21 22 23 24 25 26 27
000
ASUS43 KDMX 151507
RWRIA

WEATHER ROUNDUP FOR IOWA
NATIONAL WEATHER SERVICE DES MOINES IA
1000 AM CDT TUE APR 15 2014

NOTE: "FAIR" INDICATES FEW OR NO CLOUDS BELOW 12,000 FEET WITH NO
SIGNIFICANT WEATHER AND/OR OBSTRUCTIONS TO VISIBILITY.

* - THESE STATIONS ARE NOT NWS STATIONS...THUS NOT UNDER NWS
QUALITY CONTROL.  THEY ALSO DO NOT REPORT WEATHER SUCH
AS PRECIPITATION OR FOG.

IAZ001>003-012>014-020>022-031>034-043>046-151600-
   NORTHWEST IOWA

CITY           SKY/WX    TMP DP  RH WIND       PRES   REMARKS
CARROLL *      SUNNY     28  14  54 VRB5      30.19F WCI  23
CHEROKEE *     SUNNY     30  16  55 E3        30.18F
DENISON *      SUNNY     28  16  59 E5        30.18S WCI  23
LE MARS *      SUNNY     28  14  54 VRB7      30.18F WCI  21
ORANGE CITY *  SUNNY     28  10  47 S6        30.16S WCI  22
SHELDON *      SUNNY     27   9  46 CALM      30.15F
SIOUX CITY     SUNNY     30  20  66 SE8       30.19F WCI  22
SPENCER        SUNNY     27  13  55 NE3       30.17F
STORM LAKE *   SUNNY     27  10  50 VRB3      30.17F
$$

IAZ055>058-069>071-079>083-090>094-151600-
   SOUTHWEST IOWA

CITY           SKY/WX    TMP DP  RH WIND       PRES   REMARKS
ATLANTIC *     SUNNY     30  21  69 NE6       30.19S WCI  24
AUDUBON *      SUNNY     30  18  59 NE6       30.19S WCI  24
COUNCIL BLFS * SUNNY     32  23  69 E5        30.19R WCI  27
CRESTON *      SUNNY     30  21  69 NE3       30.19F
HARLAN  *      SUNNY     30  21  69 E6        30.23R WCI  24
LAMONI         SUNNY     34  20  56 VRB3      30.19S
RED OAK *      SUNNY     34  25  69 E5        30.20S WCI  30
SHENANDOAH *   SUNNY     36  25  64 CALM      30.22S
$$

IAZ047>049-059>061-072>074-084-151600-
   CENTRAL IOWA

CITY           SKY/WX    TMP DP  RH WIND       PRES   REMARKS
AMES           SUNNY     29  13  51 NW8       30.20S WCI  21
ANKENY *       SUNNY     30  14  51 N8G16     30.21R WCI  23
CHARITON *     SUNNY     32  21  64 N5        30.20S WCI  27
DES MOINES     SUNNY     33  16  49 NW9       30.21S WCI  25
GRINNELL*      SUNNY     30  18  59 NW14      30.19R WCI  20
KNOXVILLE *    SUNNY     32  18  55 NW9       30.20R WCI  24
MARSHALLTOWN   SUNNY     28  11  48 NW14      30.18S WCI  17
NEWTON *       SUNNY     30  18  59 NW9       30.21R WCI  22
PELLA *        SUNNY     32  19  59 NW10      30.22R WCI  24
PERRY *          N/A     30  16  55 NE7       30.21S WCI  23
$$

IAZ004>006-015-016-023>025-035-036-151600-
   NORTH CENTRAL IOWA

CITY           SKY/WX    TMP DP  RH WIND       PRES   REMARKS
ALGONA *       SUNNY     27   9  46 NW9G15    30.19S WCI  17
CLARION *      SUNNY     27   9  46 NW14      30.18S WCI  15
ESTHERVILLE    SUNNY     24  11  57 NW9       30.17S WCI  14
FORT DODGE *   SUNNY     27  10  50 N7        30.20F WCI  19
MASON CITY     SUNNY     26  11  52 NW9       30.18S WCI  17
FOREST CITY *  SUNNY     27  10  50 NW10      30.17R WCI  17
IOWA FALLS *     N/A     28   9  43 NW10G16   30.19S WCI  19
$$

IAZ007>011-017>019-026>030-037>042-050>054-066-151600-
   NORTHEAST IOWA

CITY           SKY/WX    TMP DP  RH WIND       PRES   REMARKS
CEDAR RAPIDS   MOSUNNY   30  14  51 NW16      30.17R WCI  19
CHARLES CITY * MOSUNNY   27  14  59 NW9       30.16F WCI  17
CLINTON *      MOSUNNY   30  16  55 NW5       30.19R WCI  25
DECORAH *      PTSUNNY   27  14  59 NW9       30.13S WCI  17
DUBUQUE        CLOUDY    30  18  60 N8        30.13R WCI  22
MONTICELLO *   PTSUNNY   30  18  59 W10       30.16R WCI  21
OELWEIN *      MOSUNNY  N/A N/A N/A NW10G17   30.16R
WATERLOO       SUNNY     28  14  55 NW10      30.18R WCI  19
$$

IAZ064-065-067-068-078-151600-
   EAST CENTRAL IOWA

CITY           SKY/WX    TMP DP  RH WIND       PRES   REMARKS
DAVENPORT      SUNNY     31  19  61 NW15      30.17R WCI  20
IOWA CITY      SUNNY     32  14  47 NW10G21   30.20R WCI  24
MT. PLEASANT * SUNNY     34  14  44 NW7       30.19S WCI  28
MUSCATINE *    MOSUNNY   34  16  47 NW14      30.20R WCI  24
QUAD CITIES    SUNNY     34  20  56 NW15      30.17R WCI  24
$$

IAZ062-063-075>077-085>089-095>099-151600-
   SOUTHEAST IOWA

CITY           SKY/WX    TMP DP  RH WIND       PRES   REMARKS
BURLINGTON     SUNNY     34  17  50 NW13      30.19R WCI  25
FAIRFIELD *    SUNNY     34  19  55 NW12      30.20R WCI  25
FORT MADISON * SUNNY     34  19  55 NW14      30.20S WCI  24
KEOKUK *       MOSUNNY   36  19  51 NW7       30.19S WCI  30
OSKALOOSA *      N/A     32  21  64 N8        30.20R WCI  25
CENTERVILLE *  SUNNY     34  19  55 W7        30.21S WCI  28
OTTUMWA        SUNNY     33  19  56 NW12      30.19S WCI  24
WASHINGTON *   SUNNY     32  18  55 N10       30.19S WCI  24
$$

ABBREVIATIONS USED IN REMARKS
   TC - TEMPERATURES IN CELSIUS
  WCI - WIND CHILL INDEX
   HX - HEAT INDEX
  VSB - VISIBILITY
$$




USA.gov is the U.S. government's official web portal to all federal, state and local government web resources and services.